Mather AFB, CA

8:21 AM PST on February 24, 2018 (GMT -0800)
Mather

Weather History for KMHR - September, 2013

Change the Weather History Date:

Wednesday, September 11, 2013

  Actual Average Record
Temperature  
Mean Temperature 65 °F -  
Max Temperature 77 °F 85 °F 98 °F (2014)
Min Temperature 55 °F 56 °F 42 °F (2000)
Growing Degree Days 15 (Base 50)    
Moisture  
Dew Point 55 °F    
Average Humidity 81    
Maximum Humidity 100    
Minimum Humidity 47    
Precipitation  
Precipitation 0.00 in - - ()
Sea Level Pressure  
Sea Level Pressure 29.92 in    
Wind  
Wind Speed 7 mph (SSE)    
Max Wind Speed 14 mph    
Max Gust Speed -    
Visibility 10 miles    
Events      
Averages and records for this station are not official NWS values.
T = Trace of Precipitation, MM = Missing Value Source: NWS Daily Summary

Daily Weather History Graph

Daily Weather History Graph

Search for Another Location

Airport or City:

Trip Planner

Search our weather history database for the weather conditions in past years. The results will help you decide how hot, cold, wet, or windy it might be!

Date:

Astronomy

Sep. 11, 2013 Rise Set
Actual Time 6:43 AM PDT 7:19 PM PDT
Civil Twilight 6:16 AM PDT 7:45 PM PDT
Nautical Twilight 5:45 AM PDT 8:17 PM PDT
Astronomical Twilight 5:12 AM PDT 8:49 PM PDT
Moon 1:12 PM PDT (9/11) 11:24 PM PDT (9/11)
Length of Visible Light 13h 28m
Length of Day
12h 35m
Waxing Crescent, 40% of the Moon is Illuminated
Sep 11
Waxing Crescent
Sep 12
First Quarter
Sep 19
Full
Sep 26
Last Quarter
Oct 4
New

Hourly Weather History & Observations

Time (PDT) Temp. Dew Point Humidity Pressure Visibility Wind Dir Wind Speed Gust Speed Precip Events Conditions
12:45 AM 59.0 °F 55.4 °F 88% 29.86 in 10.0 mi ESE 6.9 mph - N/A   Clear
2:45 AM 57.2 °F 55.4 °F 94% 29.88 in 10.0 mi ESE 6.9 mph - N/A   Clear
2:55 AM 57.2 °F 55.4 °F 94% 29.86 in 10.0 mi SE 8.1 mph - N/A   Clear
3:45 AM 55.4 °F 55.4 °F 100% 29.89 in 10.0 mi SE 6.9 mph - N/A   Clear
4:45 AM 55.4 °F 55.4 °F 100% 29.90 in 10.0 mi ESE 6.9 mph - N/A   Clear
5:45 AM 55.4 °F 53.6 °F 94% 29.91 in 10.0 mi SE 6.9 mph - N/A   Clear
7:47 AM 59.0 °F 57.2 °F 94% 29.94 in 10.0 mi SE 8.1 mph - N/A   Mostly Cloudy
7:58 AM 55.4 °F 55.4 °F 100% 29.93 in 10.0 mi SE 8.1 mph - N/A   Clear
8:47 AM 64.4 °F 55.4 °F 73% 29.96 in 10.0 mi SSW 6.9 mph - N/A   Mostly Cloudy
9:58 AM 68.0 °F 55.4 °F 64% 29.97 in 10.0 mi SE 5.8 mph - N/A   Mostly Cloudy
10:49 AM 71.6 °F - N/A% 29.97 in 10.0 mi South 5.8 mph - N/A   Mostly Cloudy
11:46 AM 73.4 °F 55.4 °F 53% 29.96 in 10.0 mi SSW 8.1 mph - N/A   Mostly Cloudy
12:46 PM 75.2 °F 55.4 °F 50% 29.95 in 10.0 mi SSW 6.9 mph - N/A   Mostly Cloudy
1:46 PM 77.0 °F 55.4 °F 47% 29.93 in 10.0 mi SSW 9.2 mph - N/A   Mostly Cloudy
2:46 PM - - N/A% 29.92 in 10.0 mi South 13.8 mph - N/A   Mostly Cloudy
3:46 PM - - N/A% 29.90 in 10.0 mi SW 9.2 mph - N/A   Mostly Cloudy
4:45 PM - - N/A% 29.90 in 10.0 mi South 5.8 mph - N/A   Scattered Clouds
5:47 PM - - N/A% 29.90 in 10.0 mi SSW 10.4 mph - N/A   Scattered Clouds
6:45 PM - - N/A% 29.90 in 10.0 mi SSW 10.4 mph - N/A   Scattered Clouds
7:45 PM - - N/A% 29.90 in 10.0 mi South 6.9 mph - N/A   Scattered Clouds
9:45 PM - - N/A% 29.93 in 10.0 mi South 5.8 mph - N/A   Clear
10:45 PM - - N/A% 29.93 in 10.0 mi Calm Calm - N/A   Clear